Reflectivity
-20 -20 -20 -20 -20 -20 -20 -20 -20 -13 -8 -7 -20 -20 -20 -20 -20 -11 -20 -20 9 -20 -20 -20 -20 -20 -20 -20 -20 -20 -20 -4 -12 -18 -7 -20 -20 -20 -20 -20 -20 -20 -20
-20 -20 -20 -20 -20 -20 -20 -20 -20 -20 -18 -20 -20 4 29 -20 -4 17 -20 -20 2 -20 -20 -20 -20 -20 -20 -9 -20 -20 -20 -20 -20 -20 -20 -20 -20 -20 -20 -20 -20 -20 -20
-20 -20 -20 -20 -20 -20 -20 -20 -20 8 -20 -20 -20 -20 -20 -7 -8 7 31 -20 -20 -20 -20 -20 -20 -17 -20 -17 -13 -20 -20 -20 -20 -20 -20 6 -9 7 -20 -20 -20 -20 -20
-20 -20 -20 -20 -20 -20 -20 -20 -20 -20 7 -20 -20 -20 -20 3 -20 -20 -20 1 -20 -20 -20 -20 -20 -20 -20 -18 -7 18 -20 -4 -20 -20 -20 -20 -20 -15 -18 -19 -20 -20 -20
-20 -20 -20 -20 -20 -20 -20 -20 -20 -20 -20 -20 -20 -20 -20 -20 -20 -17 -20 -20 12 -20 -20 -20 -20 -20 -20 -8 -20 19 -1 1 -9 -20 -16 -20 -17 -20 -14 2 -13 -20 -20
15 -20 -4 5 -20 -20 -20 -20 -20 -20 -20 -20 -20 -20 -10 -20 -20 -20 -20 -20 -20 -3 -10 -10 -20 -11 7 -20 -20 -20 -20 -18 -18 -20 -20 -20 -19 -20 -20 -20 -20 -20 -20
-1 14 3 12 10 -16 -20 -20 -20 -20 -20 -20 -20 -20 -20 -20 -20 -20 -20 -20 -20 -20 27 -20 -20 -20 -20 -20 -20 -20 -20 -20 -20 -20 -20 -20 -20 -6 -20 -20 15 -20 -20
-8 -9 5 21 14 11 9 3 -10 -20 -20 -20 -20 -20 -20 -20 -20 -20 -20 -20 -20 -20 -20 -7 -20 -20 -20 -0 7 -16 -20 -20 -20 -20 -20 -20 -20 -20 26 8 15 10 -16
-20 -20 -0 -14 -6 32 14 11 1 5 1 -20 -20 -20 -20 -20 -20 -20 -20 -20 -20 -20 -20 -20 -20 -20 -20 -20 -7 -13 -6 -19 -6 -19 -20 -20 -20 -20 -5 -14 -17 24 -7
-20 -8 35 41 9 24 5 -20 12 5 7 -20 -20 -20 -20 -20 -20 -20 -20 -20 -20 -20 -16 -20 -20 32 -19 -20 -20 -6 -16 -20 28 28 -16 3 6 -1 3 -19 7 18 25
-20 -10 22 42 16 33 34 15 14 -20 3 -20 2 -17 -19 -20 -20 -20 -20 -20 -20 -20 -20 -20 -20 -16 -8 -14 -8 12 0 25 13 12 -16 -3 24 14 -10 -16 13 8 12
-20 -15 9 -14 -20 30 34 31 19 22 23 -12 -20 -11 -20 -20 -20 -17 -14 -20 -20 -20 -20 -20 -20 -2 7 13 16 -19 -15 6 -20 -20 -20 -15 22 -6 1 -20 -20 -20 -20
-20 -20 -20 -20 -20 -1 29 30 31 31 33 9 -4 -20 -20 -20 -20 -20 -20 -20 -20 -20 -20 -13 -11 10 16 9 9 13 11 -19 -20 -20 -17 -20 9 17 23 -19 -20 -20 -20
-20 -20 -20 -10 -15 15 27 19 30 48 36 33 -14 -20 -20 -20 -20 -20 -15 3 1 -2 7 -11 -20 8 12 -14 -7 -9 -4 -20 -20 -20 -19 19 21 0 -14 -20 -20 -20 -20
-20 -20 -20 -20 -20 -12 -20 3 14 37 42 35 -9 -20 -20 -20 -20 1 -11 27 -12 -20 -20 -7 -20 -20 -16 -20 -20 -20 -20 -20 -14 -8 4 -9 -15 -20 -20 -20 -20 -20 -20
-20 -20 -20 -20 -20 -20 -16 -13 20 35 52 38 37 30 5 19 -19 -11 -20 -20 -20 -20 -20 8 -7 -19 -20 -20 -8 -3 -11 -3 6 -14 -19 -9 -20 -20 -20 -20 -20 -20 -20
20 -20 -20 -20 -20 -20 24 -8 13 36 24 30 33 34 33 33 3 30 37 5 -3 -3 -20 -20 -19 0 2 -20 7 8 -19 -11 -20 -20 -20 -20 -20 -20 -20 -20 -20 -20 -20
21 -20 -20 -20 -20 -20 -20 9 -7 26 16 -20 9 27 24 8 10 27 32 6 -4 -2 -20 -20 -20 -20 -20 -20 -20 -20 -20 0 -20 -20 -20 -20 -20 -20 -20 -20 -20 -20 -20
25 -20 -20 -20 -20 -20 -20 -20 -20 -20 -20 -20 -20 -15 -5 5 11 12 11 -4 -20 -20 -20 -20 -20 -20 -20 -20 -20 -20 -20 -5 -20 -20 -20 -20 -20 -20 -20 -20 -20 -20 -20
27 6 -19 -20 -20 -20 -20 -20 -20 -20 -20 -20 -20 -20 -20 -2 -16 -18 -15 -1 5 -10 -20 -20 -20 -20 -20 -20 -20 -20 -20 -20 -20 -20 -20 -20 -20 -20 -20 -20 -20 -20 -20
27 17 1 -20 -20 -20 -20 -20 -19 -19 -20 -8 -20 -20 -20 -20 -13 -20 -20 -8 -20 -20 -20 -20 -20 -20 -20 -20 -20 -20 -20 -20 -20 -20 -20 -20 -20 -20 -20 -20 -20 -20 -20
12 11 -10 -20 -5 -20 -17 23 20 14 8 4 6 1 -20 -3 12 -18 -20 -20 -2 -19 -20 -20 -20 -20 -20 -20 -20 -20 -20 -20 -20 -20 -20 -20 -20 -20 -20 -20 -20 -20 -20
7 -17 13 4 -16 22 3 -6 25 -11 4 5 12 -4 -20 -20 -20 12 -20 -20 -20 -20 -20 -20 -20 -20 -20 -20 -20 -20 -20 -20 -20 -20 -20 -20 -20 -20 -20 -20 -20 -20 -20
-12 1 -2 -13 -20 -20 -20 27 -4 -4 -13 -20 -20 -20 6 -20 -20 9 -20 -20 -20 -20 -20 -20 -20 -20 -20 -20 -20 -20 -20 -20 -20 -20 -20 -20 -20 -20 -20 -20 -20 -20 -20
-4 30 4 -13 -11 1 -6 -20 16 10 -18 5 8 -8 -18 -20 7 20 -20 -20 -20 -20 -11 1 1 -10 -7 -20 -20 -20 -20 -20 -16 -20 -20 -20 -20 -20 -8 5 -19 -20 -20
-0 -1 -5 33 1 -1 9 30 27 14 -20 -20 -20 -6 -20 -20 -18 17 23 -3 -20 -20 -10 19 -4 -15 -18 -20 -20 -20 2 -20 -13 -4 -20 -20 -20 -15 -20 -12 4 -16 -20
Wind_Speed
15 15 15 15 16 14 13 11 10 8 6 6 8 10 10 10 10 9 9 6 8 8 8 7 6 6 8 3 5 3 4 3 8 1 7 7 5 5 5 5 7 9 10
14 13 15 15 15 17 14 14 13 11 9 11 11 10 9 11 9 10 11 9 11 9 10 8 9 8 7 6 6 5 4 4 7 5 5 2 5 8 6 5 6 9 5
14 15 15 16 16 17 18 16 14 13 12 13 12 11 11 13 11 10 10 11 11 9 10 9 9 8 6 6 8 5 7 7 7 7 6 6 3 5 5 7 6 8 8
14 15 15 16 17 17 15 15 16 14 13 13 12 12 12 13 12 12 11 10 10 11 9 10 9 9 8 7 7 6 6 6 6 6 7 7 5 2 5 5 6 8 8
13 14 14 14 13 13 13 13 14 14 14 13 13 12 12 11 10 11 10 11 10 11 11 10 12 10 8 7 8 8 7 7 8 7 9 8 5 3 2 3 5 6 4
8 12 13 13 13 13 12 13 14 14 14 15 14 14 14 13 13 13 9 10 10 11 10 11 11 6 8 8 8 10 6 7 7 9 9 8 4 3 5 4 4 4 4
7 9 10 12 14 14 13 13 13 14 13 14 15 14 14 13 8 9 10 12 11 10 10 10 12 12 14 12 15 14 12 11 11 9 9 9 9 6 5 6 6 6 7
11 9 9 12 12 13 14 14 13 13 14 14 15 15 14 13 12 12 12 12 11 12 12 13 14 11 10 9 10 9 11 12 13 12 13 13 11 8 5 6 6 6 6
10 8 9 11 15 12 13 14 13 13 13 14 14 15 16 15 14 15 11 13 13 13 12 13 12 11 12 5 9 11 10 12 12 15 12 6 5 7 6 7 6 4 5
9 6 3 21 13 13 12 14 13 12 13 13 15 15 16 15 14 16 15 12 12 11 12 13 13 14 9 9 11 12 11 12 11 11 10 6 8 8 7 9 8 6 6
10 8 8 8 7 12 12 12 13 13 13 14 15 14 15 16 14 17 19 13 12 11 11 9 12 10 8 11 12 10 10 9 8 8 10 10 7 8 7 6 6 7 6
11 10 9 8 6 5 7 6 10 13 14 13 14 13 13 13 13 14 20 20 13 12 9 8 6 10 10 8 7 10 5 6 9 11 10 6 4 5 5 5 3 3 5
13 12 11 8 9 1 10 14 7 15 15 15 14 14 13 13 13 16 19 20 15 9 11 1 11 11 7 6 10 6 6 8 10 11 9 5 6 5 6 5 5 5 4
15 13 11 11 10 10 9 7 5 15 15 15 14 13 14 13 13 11 9 9 6 9 8 6 8 7 8 3 5 6 7 10 8 9 7 5 6 5 6 8 8 8 7
15 15 13 12 10 9 10 13 10 6 16 20 14 13 12 12 11 15 15 10 12 13 13 9 8 7 9 9 9 7 8 8 7 8 5 6 7 6 7 5 6 5 7
15 14 13 12 12 11 9 8 9 17 15 11 8 8 3 3 7 15 20 15 14 14 11 10 9 9 9 9 7 6 6 8 7 6 6 7 6 7 6 6 5 6 6
14 15 14 13 12 10 11 10 8 7 7 5 2 7 14 8 8 6 12 14 14 15 12 10 10 10 11 10 8 8 10 8 8 7 7 7 8 8 7 7 7 7 6
15 16 13 14 13 13 12 11 11 12 12 9 8 3 7 8 10 11 15 14 6 9 11 11 11 11 10 11 10 11 10 8 8 9 8 8 8 8 7 8 8 8 7
12 13 14 14 14 14 13 13 11 11 9 9 3 7 9 5 7 9 18 11 13 12 13 11 12 10 10 11 9 9 9 9 9 10 9 9 9 8 8 8 7 3 4
12 18 15 13 12 13 12 13 13 10 8 10 8 8 9 4 7 8 7 9 12 12 12 12 11 10 10 8 8 10 10 8 10 10 10 10 9 9 9 9 9 8 7
11 16 21 14 14 14 10 7 8 8 6 9 11 10 11 10 7 10 10 11 12 11 10 11 10 10 8 9 11 10 10 11 11 11 10 9 9 8 9 8 9 9 9
10 10 9 10 11 10 10 8 9 10 11 11 11 7 17 10 10 11 12 13 13 11 10 10 10 11 10 10 10 10 12 12 12 11 10 9 9 9 9 9 9 9 10
10 11 10 9 9 9 6 8 7 7 8 8 8 5 9 7 9 11 11 12 12 11 12 10 10 11 11 12 11 11 12 12 12 11 11 10 10 10 10 9 10 10 10
7 8 8 7 8 8 7 8 6 6 6 5 4 5 8 6 7 12 12 12 10 11 11 10 11 14 12 12 11 12 12 12 11 10 13 11 9 7 9 8 11 12 11
5 6 6 7 6 7 7 7 7 7 6 6 8 5 5 8 6 9 4 5 5 8 9 8 8 13 16 18 15 17 11 9 10 10 8 5 9 8 5 7 11 12 13
10 8 7 6 5 4 5 4 4 5 4 3 5 5 5 5 4 6 5 8 7 6 8 8 12 16 17 17 16 6 9 12 9 9 11 10 10 10 8 8 13 13 13
Wind_Direction
201 196 197 200 197 213 208 206 227 223 218 243 195 219 212 215 209 215 235 278 220 224 269 188 213 270 279 262 224 275 297 295 274 138 207 129 152 233 180 205 217 220 199
199 201 201 201 204 199 217 200 204 223 206 203 219 227 229 226 236 208 224 222 231 219 236 241 226 228 198 270 270 279 294 320 299 337 306 230 193 181 230 221 243 281 243
207 205 207 205 206 213 199 216 201 203 215 220 211 216 225 227 217 228 223 243 257 234 234 228 233 229 228 231 241 228 211 227 210 236 260 234 140 216 176 227 214 233 265
220 212 211 214 212 213 215 201 209 203 211 215 225 209 216 229 229 222 226 223 245 251 234 246 237 238 227 233 236 230 246 264 265 261 264 264 220 177 190 273 226 211 233
234 224 215 215 220 216 211 208 205 200 204 215 217 224 223 215 232 235 229 235 207 244 257 230 235 242 244 235 256 222 247 223 240 215 229 234 227 171 202 320 282 296 269
234 244 227 213 218 218 215 209 203 211 207 204 217 217 212 228 206 191 223 237 234 233 245 248 248 233 230 227 253 283 283 288 268 288 295 294 332 275 253 324 354 338 291
265 248 245 226 214 215 215 214 212 207 213 213 207 214 218 230 223 184 202 234 248 256 222 235 257 247 211 218 214 227 243 239 242 266 274 277 295 287 280 288 269 284 281
301 252 242 248 228 212 211 212 213 212 213 216 216 212 216 222 216 207 192 233 242 248 259 230 236 257 274 221 248 227 236 241 229 231 238 254 257 270 265 268 274 285 282
278 284 241 227 240 222 212 211 210 213 216 217 216 216 215 222 204 204 196 234 237 240 245 252 252 241 249 263 253 249 248 247 221 214 229 244 203 193 230 237 228 233 259
281 250 54 249 216 223 212 215 212 212 217 221 220 219 220 221 199 194 195 226 228 232 226 237 247 252 250 198 223 236 247 255 259 237 218 218 214 205 197 235 249 242 245
283 278 278 274 275 248 223 216 217 212 223 214 224 215 216 215 215 191 188 212 227 225 232 205 230 184 179 196 219 223 246 292 295 256 247 239 224 222 207 220 242 268 264
282 279 233 251 225 245 277 306 260 233 222 217 221 224 218 221 215 188 190 207 216 235 250 252 239 152 181 203 215 244 296 301 263 264 267 251 244 212 202 200 215 267 12
273 275 274 239 253 76 268 253 275 273 237 214 212 219 220 203 212 189 192 200 211 210 236 194 133 149 170 220 242 251 227 237 246 245 239 233 211 201 208 157 166 167 102
272 265 264 254 244 203 223 220 196 264 244 233 215 219 217 215 206 169 188 200 195 208 149 154 158 169 197 226 180 203 233 233 238 245 243 211 195 171 201 206 195 187 195
258 259 255 247 247 238 216 223 198 245 265 248 223 224 217 215 207 164 168 182 194 204 188 185 199 207 217 217 223 236 228 227 225 233 221 201 194 202 210 188 223 199 228
259 254 249 252 238 219 224 251 203 186 268 260 281 306 343 96 354 150 163 164 174 165 191 187 208 218 225 221 213 204 233 230 226 229 207 208 203 205 194 200 204 223 215
261 262 269 258 253 252 208 210 247 201 252 249 234 339 262 284 150 206 157 135 152 158 204 207 209 201 218 218 193 197 212 223 217 220 211 201 203 208 184 197 207 218 211
253 256 262 259 259 253 244 241 225 243 239 212 146 194 229 227 180 188 138 129 159 213 208 223 212 219 206 227 213 195 212 192 193 211 202 200 202 203 200 213 207 207 209
243 247 244 233 246 261 267 270 246 235 267 267 199 124 80 84 126 176 161 181 184 205 217 224 224 218 219 210 202 214 226 198 186 205 200 198 199 199 208 217 214 280 228
260 246 258 255 242 243 245 246 259 270 266 273 267 261 123 160 173 173 198 210 211 200 215 215 227 229 219 178 194 214 215 194 185 203 208 202 200 205 210 212 219 195 209
242 250 212 227 237 255 252 255 262 268 268 254 258 247 173 189 199 183 188 214 218 213 205 212 218 231 219 188 200 204 203 203 197 204 206 203 203 210 226 218 215 208 210
245 261 265 242 248 234 236 234 232 232 233 239 243 246 160 202 214 189 193 212 214 225 218 208 212 219 223 219 199 199 207 208 195 197 206 206 204 214 226 227 224 224 224
258 245 242 234 237 221 211 240 229 234 251 258 254 192 183 212 220 224 192 200 210 215 223 234 218 226 209 218 208 200 210 212 202 193 198 206 212 210 213 225 228 235 226
282 262 265 255 238 223 218 234 224 215 223 197 160 159 189 197 237 252 215 199 198 210 215 221 234 229 234 215 203 201 214 221 211 182 199 206 216 206 225 228 224 225 239
308 276 285 277 249 229 230 226 221 200 201 179 178 185 227 214 201 248 246 224 185 199 207 218 219 228 228 240 224 201 214 178 184 162 182 217 211 221 246 237 220 242 249
4 341 308 302 269 228 207 190 199 191 208 221 231 211 198 237 286 308 298 194 212 203 214 215 223 231 234 230 220 224 159 167 163 178 194 203 208 220 219 236 261 257 216